[[{"header":{"parameterUnit":"m.s-1","parameterCategory":1,"la1":30.2991,"la2":30.254,"lo1":-89.0895,"lo2":-89.0444,"dy":0.0017,"dx":0.0017,"nx":28,"ny":28,"refTime":"2025-04-08T03:00:00:Z","depth":0,"parameterNumber":2,"parameterNumberName":"U-component_of_WINDS"},"data":[0,0,0,0,0,0,0,0,0,0,0,0,0,0,0,0,0,0,0,0,0,0,0,0,0,0,0,0,0,0,0,0,0,0,0,0,0,0,0,0,0,0,0,0,0,0,0,0,0,0,0,0,0,0,0,0,0,0,-0.2582,-0.2582,0,-0.2629,-0.2629,-0.263,-0.262,-0.2619,-0.2619,-0.2618,-0.2669,-0.2671,-0.2673,0,0,0,0,0,0,0,0,0,0,0,0,0,-0.2487,-0.2489,-0.2582,-0.2582,-0.2583,-0.2629,-0.2629,-0.263,-0.262,-0.2619,-0.2618,-0.2617,-0.2668,-0.2671,-0.2673,0,0,0,0,0,0,0,0,0,0,0,0,0,-0.253,-0.2489,-0.2581,-0.2583,-0.2584,-0.2628,-0.2629,-0.263,-0.2621,-0.2619,-0.2618,-0.2617,-0.2667,-0.2671,-0.2674,-0.272,0,0,-0.2684,-0.2685,0,0,0,0,0,0,0,0,-0.2528,-0.2534,-0.2583,-0.2583,-0.2584,-0.2617,-0.2615,-0.266,-0.2621,-0.2607,-0.2618,-0.2616,-0.2653,-0.2657,-0.2669,-0.2722,-0.2725,-0.2684,-0.2686,-0.2687,-0.2688,0,0,0,0,0,0,0,-0.2525,-0.2532,-0.26,-0.2583,-0.2584,-0.2583,-0.2588,-0.2623,-0.2637,-0.2608,-0.2607,-0.2613,-0.2653,-0.2666,-0.267,-0.2725,-0.2684,-0.2687,-0.2689,-0.269,-0.2821,-0.2822,0,0,0,0,0,0,-0.2521,-0.2529,-0.2599,-0.2602,-0.2552,-0.2586,-0.2591,-0.2608,-0.2636,-0.2639,-0.2614,-0.2612,-0.2661,-0.2667,-0.2672,-0.273,-0.2687,-0.2691,-0.2692,-0.2819,-0.2821,-0.2823,0,0,0,0,0,0,-0.2519,-0.2527,-0.2597,-0.2565,-0.2574,-0.2589,-0.2608,-0.261,-0.2622,-0.2641,-0.2644,-0.2624,-0.266,-0.2668,-0.2708,-0.2731,-0.2692,-0.2695,-0.2817,-0.282,-0.2822,-0.2844,0,0,0,0,0,0,-0.2516,-0.2526,-0.2543,-0.2566,-0.2576,-0.2632,-0.2609,-0.2611,-0.2628,-0.2626,-0.2651,-0.2654,-0.266,-0.2704,-0.2712,-0.2735,-0.2697,-0.2815,-0.2818,-0.2821,-0.2842,-0.2847,-0.2852,0,0,0,0,0,-0.2513,-0.2548,-0.2544,-0.2553,-0.2597,-0.2633,-0.2639,-0.2643,-0.2629,-0.2647,-0.2659,-0.2654,-0.2727,-0.2708,-0.2717,-0.2742,-0.2814,-0.2818,-0.2821,-0.2839,-0.2846,-0.2851,0,0,0,0,0,0,-0.2529,-0.2551,-0.2547,-0.259,-0.261,-0.2631,-0.2654,-0.265,-0.2674,-0.2672,-0.2678,-0.2683,-0.2725,-0.2737,-0.2715,-0.2789,-0.2769,-0.2774,-0.278,-0.2786,-0.2791,-0.2788,-0.27,0,0,0,0,0,-0.2537,-0.2563,-0.2581,-0.2618,-0.2628,-0.2639,-0.2655,-0.2657,-0.2677,-0.2686,-0.2701,-0.2722,-0.275,-0.2768,-0.2795,-0.2842,-0.2849,-0.2864,-0.2869,-0.2873,-0.2878,-0.2906,-0.2914,-0.2834,-0.2834,-0.2834,0,0,-0.2556,-0.2571,-0.2587,-0.2622,-0.2637,-0.2665,-0.2646,-0.2676,-0.2698,-0.2691,-0.2731,-0.2742,-0.2766,-0.2811,-0.2831,-0.2822,-0.2902,-0.2877,-0.288,-0.2884,-0.2911,-0.2918,-0.2925,-0.2836,-0.2836,-0.2835,0,0,-0.2604,-0.2617,-0.265,-0.2665,-0.2688,-0.2695,-0.2703,-0.2725,-0.2732,-0.2772,-0.2767,-0.2793,-0.284,-0.2858,-0.2874,-0.2928,-0.2925,-0.2937,-0.2964,-0.2991,-0.2998,-0.3003,-0.3025,-0.3033,-0.2941,-0.2941,-0.2941,0,-0.2624,-0.2665,-0.2667,-0.2698,-0.2715,-0.2708,-0.2742,-0.2757,-0.2788,-0.28,-0.2788,-0.2849,-0.2864,-0.2914,-0.2927,-0.2939,-0.295,-0.2935,-0.2996,-0.3002,-0.3007,-0.3028,-0.3036,-0.2943,-0.2943,-0.2943,-0.2942,0,-0.269,-0.2718,-0.2742,-0.2772,-0.279,-0.2823,-0.2831,-0.285,-0.285,-0.2859,-0.29,-0.2918,-0.2949,-0.296,-0.2961,-0.3011,-0.3005,-0.2994,-0.2975,-0.3016,-0.3036,-0.3044,-0.2945,-0.2944,-0.2944,-0.2944,0,0,-0.2751,-0.278,-0.279,-0.2803,-0.2828,-0.2851,-0.2883,-0.2913,-0.293,-0.2951,-0.298,-0.302,-0.3011,-0.3028,-0.3031,-0.3054,-0.3099,-0.3041,-0.3042,-0.3054,-0.3158,-0.3167,-0.3176,-0.3096,-0.3097,-0.3098,-0.3157,0,-0.2803,-0.286,-0.2863,-0.2915,-0.2943,-0.2936,-0.2965,-0.2984,-0.2993,-0.3019,-0.3029,-0.3058,-0.3043,-0.3053,-0.3076,-0.3089,-0.312,-0.3084,-0.3125,-0.3126,-0.3122,-0.3186,-0.3196,-0.3251,-0.3164,-0.3165,-0.3166,0,-0.2872,-0.2895,-0.295,-0.2971,-0.2983,-0.3009,-0.3036,-0.306,-0.3082,-0.3087,-0.3106,-0.3105,-0.314,-0.3117,-0.3167,-0.3142,-0.3159,-0.3167,-0.3169,-0.3176,-0.3151,-0.3197,-0.3268,-0.3277,-0.3178,-0.3177,-0.3176,0,-0.2914,-0.2958,-0.2997,-0.3009,-0.3034,-0.3053,-0.3065,-0.3085,-0.3103,-0.3127,-0.3139,-0.3167,-0.3183,-0.3206,-0.3213,-0.3195,-0.3263,-0.324,-0.327,-0.327,-0.3287,-0.3286,-0.3364,-0.3293,-0.3293,-0.3292,-0.3292,0,-0.2973,-0.3008,-0.3017,-0.3041,-0.308,-0.3083,-0.3122,-0.3132,-0.315,-0.3178,-0.3173,-0.3199,-0.3206,-0.3234,-0.3239,-0.3281,-0.3287,-0.3294,-0.3296,-0.3296,-0.3295,-0.3309,-0.3306,-0.3295,-0.3294,-0.3294,-0.3293,0,-0.3028,-0.3035,-0.3078,-0.3098,-0.3104,-0.3132,-0.315,-0.3174,-0.3182,-0.3217,-0.3225,-0.3238,-0.327,-0.3279,-0.3318,-0.3322,-0.3371,-0.3368,-0.3364,-0.3365,-0.3395,-0.3393,-0.3486,-0.35,-0.3417,-0.3418,-0.3419,0,-0.3067,-0.3093,-0.3116,-0.3134,-0.3146,-0.3174,-0.3192,-0.3196,-0.3216,-0.3242,-0.3264,-0.3295,-0.3321,-0.3373,-0.3387,-0.3417,-0.3416,-0.3447,-0.3421,-0.3421,-0.342,-0.3419,-0.3423,-0.3453,-0.3453,-0.3454,-0.3455,0,-0.3136,-0.3138,-0.3164,-0.3191,-0.3212,-0.3234,-0.3255,-0.327,-0.3277,-0.3299,-0.3332,-0.3351,-0.3391,-0.3423,-0.3453,-0.3467,-0.3463,-0.3462,-0.3471,-0.3473,-0.3471,-0.3475,-0.338,-0.3461,-0.346,-0.346,-0.3459,-0.3459,-0.3186,-0.3209,-0.323,-0.3259,-0.3275,-0.3294,-0.3318,-0.3329,-0.3356,-0.3388,-0.3388,-0.3425,-0.3447,-0.3487,-0.3502,-0.3531,-0.3522,-0.3534,-0.3538,-0.3542,-0.3546,-0.3464,-0.3536,-0.3536,-0.3536,-0.3536,-0.3535,0,-0.3257,-0.3269,-0.3296,-0.3325,-0.3348,-0.334,-0.3363,-0.3384,-0.3415,-0.3436,-0.3461,-0.3499,-0.353,-0.3546,-0.3577,-0.3598,-0.3597,-0.3606,-0.3607,-0.361,-0.355,-0.3541,-0.3607,-0.3607,-0.3607,-0.3607,-0.3607,-0.3607,-0.3297,-0.3337,-0.3342,-0.3391,-0.3403,-0.3438,-0.3452,-0.3471,-0.3487,-0.353,-0.3555,-0.3565,-0.3584,-0.3617,-0.3645,-0.3649,-0.3662,-0.3673,-0.3677,-0.3621,-0.3614,-0.3607,-0.3598,-0.3675,-0.3675,-0.3734,-0.3735,-0.3735]},{"header":{"parameterUnit":"m.s-1","parameterCategory":1,"la1":30.2991,"la2":30.254,"lo1":-89.0895,"lo2":-89.0444,"dy":0.0017,"dx":0.0017,"nx":28,"ny":28,"refTime":"2025-04-08T03:00:00:Z","depth":0,"parameterNumber":3,"parameterNumberName":"V-component_of_WINDS"},"data":[0,0,0,0,0,0,0,0,0,0,0,0,0,0,0,0,0,0,0,0,0,0,0,0,0,0,0,0,0,0,0,0,0,0,0,0,0,0,0,0,0,0,0,0,0,0,0,0,0,0,0,0,0,0,0,0,0,0,-4.2604,-4.2605,0,-4.2669,-4.267,-4.267,-4.2635,-4.2634,-4.2632,-4.263,-4.2694,-4.2697,-4.27,0,0,0,0,0,0,0,0,0,0,0,0,0,-4.2448,-4.2451,-4.2604,-4.2605,-4.2606,-4.2669,-4.267,-4.2671,-4.2636,-4.2634,-4.2631,-4.2629,-4.2692,-4.2696,-4.27,0,0,0,0,0,0,0,0,0,0,0,0,0,-4.2514,-4.2452,-4.2604,-4.2596,-4.2596,-4.2669,-4.267,-4.2671,-4.2636,-4.2634,-4.2631,-4.2628,-4.2691,-4.2696,-4.2701,-4.2784,0,0,-4.2716,-4.2718,0,0,0,0,0,0,0,0,-4.2511,-4.252,-4.2596,-4.2597,-4.2597,-4.2641,-4.2638,-4.2709,-4.2637,-4.2621,-4.263,-4.2627,-4.2678,-4.2684,-4.2702,-4.2787,-4.279,-4.2717,-4.272,-4.2722,-4.2723,0,0,0,0,0,0,0,-4.2506,-4.2517,-4.263,-4.2597,-4.2598,-4.2588,-4.2595,-4.2651,-4.2663,-4.2622,-4.262,-4.2628,-4.2678,-4.2697,-4.2703,-4.2791,-4.2716,-4.2721,-4.2724,-4.2726,-4.295,-4.2953,0,0,0,0,0,0,-4.2502,-4.2513,-4.2627,-4.2631,-4.2546,-4.2593,-4.2601,-4.263,-4.2663,-4.2665,-4.263,-4.2626,-4.269,-4.2697,-4.2705,-4.2807,-4.2722,-4.2726,-4.2729,-4.2947,-4.295,-4.2954,0,0,0,0,0,0,-4.2499,-4.2513,-4.2625,-4.2572,-4.2586,-4.2599,-4.2632,-4.2632,-4.2652,-4.2669,-4.2671,-4.2648,-4.2688,-4.2698,-4.2766,-4.2808,-4.2729,-4.2733,-4.2943,-4.2948,-4.2952,-4.3009,0,0,0,0,0,0,-4.2495,-4.2512,-4.2544,-4.2573,-4.2589,-4.2685,-4.2634,-4.2636,-4.2661,-4.2656,-4.2686,-4.2688,-4.2687,-4.2758,-4.2771,-4.2814,-4.2737,-4.294,-4.2945,-4.2951,-4.3004,-4.3015,-4.3025,0,0,0,0,0,-4.2489,-4.2556,-4.2546,-4.256,-4.2629,-4.2688,-4.2696,-4.2694,-4.2664,-4.2697,-4.2708,-4.2687,-4.2801,-4.2766,-4.2779,-4.2824,-4.2937,-4.2944,-4.295,-4.2999,-4.3013,-4.3025,0,0,0,0,0,0,-4.253,-4.256,-4.2549,-4.2627,-4.2655,-4.2682,-4.2722,-4.2709,-4.2745,-4.2739,-4.2734,-4.2741,-4.2811,-4.2824,-4.2784,-4.2908,-4.2864,-4.2874,-4.2897,-4.291,-4.2921,-4.2917,-4.2741,0,0,0,0,0,-4.2549,-4.2595,-4.2617,-4.2685,-4.27,-4.2709,-4.2734,-4.273,-4.2758,-4.277,-4.2786,-4.2813,-4.2856,-4.2883,-4.2923,-4.3005,-4.3012,-4.3043,-4.3053,-4.3062,-4.3071,-4.3117,-4.3132,-4.2976,-4.2975,-4.2975,0,0,-4.2587,-4.2609,-4.2638,-4.2694,-4.2715,-4.2762,-4.2719,-4.277,-4.2805,-4.2777,-4.2843,-4.2855,-4.2886,-4.2962,-4.2996,-4.2975,-4.3115,-4.3071,-4.3077,-4.3081,-4.3125,-4.314,-4.3153,-4.298,-4.2979,-4.2979,0,0,-4.2681,-4.2702,-4.2761,-4.2784,-4.2818,-4.2824,-4.2838,-4.2867,-4.2875,-4.2941,-4.2921,-4.2962,-4.3034,-4.3058,-4.3079,-4.3184,-4.3167,-4.3197,-4.3253,-4.3298,-4.331,-4.3321,-4.336,-4.3374,-4.3205,-4.3205,-4.3205,0,-4.2724,-4.2796,-4.2793,-4.2847,-4.2873,-4.2851,-4.2911,-4.2933,-4.2977,-4.2995,-4.2971,-4.3063,-4.3081,-4.3163,-4.3189,-4.3207,-4.3223,-4.3194,-4.3309,-4.3319,-4.333,-4.3367,-4.3381,-4.3209,-4.3208,-4.3208,-4.3208,0,-4.2848,-4.2898,-4.2941,-4.2987,-4.3017,-4.3074,-4.3079,-4.311,-4.3104,-4.3112,-4.318,-4.3202,-4.3247,-4.3266,-4.3259,-4.3347,-4.3333,-4.3309,-4.3266,-4.3348,-4.3383,-4.3397,-4.3214,-4.3212,-4.3211,-4.321,0,0,-4.2969,-4.3014,-4.303,-4.3052,-4.3088,-4.3126,-4.3182,-4.3227,-4.3254,-4.3285,-4.3333,-4.3395,-4.3374,-4.3398,-4.3394,-4.3433,-4.3517,-4.3404,-4.3405,-4.3426,-4.3617,-4.3637,-4.3653,-4.3505,-4.3508,-4.351,-4.3615,0,-4.3067,-4.3167,-4.3167,-4.3258,-4.3305,-4.3286,-4.3334,-4.3362,-4.3371,-4.3412,-4.3421,-4.3467,-4.3434,-4.3449,-4.3487,-4.3499,-4.3556,-4.3491,-4.355,-4.3552,-4.3544,-4.3671,-4.3691,-4.3789,-4.3629,-4.3631,-4.3632,0,-4.3195,-4.3233,-4.333,-4.3361,-4.3381,-4.3425,-4.3467,-4.3506,-4.3537,-4.3541,-4.3569,-4.3559,-4.3616,-4.3571,-4.3649,-4.3605,-4.3629,-4.3639,-4.3642,-4.3649,-4.3598,-4.3682,-4.382,-4.3835,-4.3654,-4.3652,-4.365,0,-4.3276,-4.3351,-4.342,-4.3438,-4.3476,-4.3507,-4.3524,-4.3552,-4.358,-4.3617,-4.3635,-4.3677,-4.37,-4.3733,-4.3735,-4.3701,-4.3815,-4.3769,-4.382,-4.382,-4.3846,-4.3844,-4.3991,-4.3859,-4.3858,-4.3858,-4.3858,0,-4.3387,-4.3447,-4.3457,-4.3499,-4.3566,-4.3565,-4.3632,-4.3646,-4.3671,-4.3716,-4.37,-4.3742,-4.3741,-4.3784,-4.3785,-4.3851,-4.3861,-4.3866,-4.3866,-4.3869,-4.3868,-4.3885,-4.3879,-4.3862,-4.3861,-4.386,-4.386,0,-4.3489,-4.3498,-4.3572,-4.3602,-4.3611,-4.366,-4.3685,-4.3725,-4.3734,-4.379,-4.3803,-4.3816,-4.3866,-4.3871,-4.3927,-4.3928,-4.4009,-4.4,-4.3999,-4.3998,-4.405,-4.4046,-4.4214,-4.4236,-4.4088,-4.4089,-4.409,0,-4.356,-4.3606,-4.3642,-4.3672,-4.3691,-4.3738,-4.3767,-4.3768,-4.3799,-4.3838,-4.3874,-4.3922,-4.3961,-4.404,-4.4055,-4.4098,-4.4092,-4.4148,-4.4098,-4.41,-4.4095,-4.4093,-4.4098,-4.4158,-4.4159,-4.4161,-4.4162,0,-4.3685,-4.3687,-4.373,-4.3776,-4.3812,-4.3847,-4.388,-4.3904,-4.3909,-4.3944,-4.3996,-4.4026,-4.4085,-4.4133,-4.4177,-4.4193,-4.4179,-4.4177,-4.4192,-4.4195,-4.4193,-4.4197,-4.4027,-4.4173,-4.4172,-4.4171,-4.4171,-4.417,-4.3775,-4.3816,-4.3849,-4.3898,-4.3923,-4.3955,-4.3995,-4.4009,-4.4052,-4.4102,-4.4099,-4.4156,-4.4186,-4.4243,-4.4263,-4.4307,-4.4289,-4.4309,-4.4315,-4.432,-4.4327,-4.4185,-4.4315,-4.4315,-4.4314,-4.4314,-4.4314,0,-4.39,-4.3921,-4.3966,-4.4014,-4.4053,-4.4037,-4.4073,-4.4106,-4.4157,-4.4187,-4.4227,-4.4286,-4.4333,-4.4352,-4.4398,-4.443,-4.4425,-4.4442,-4.444,-4.4445,-4.434,-4.4323,-4.4446,-4.4446,-4.4446,-4.4446,-4.4446,-4.4446,-4.3971,-4.404,-4.4047,-4.4129,-4.4149,-4.4206,-4.4228,-4.4258,-4.4282,-4.435,-4.439,-4.4402,-4.4428,-4.4476,-4.4519,-4.4523,-4.4541,-4.4562,-4.4563,-4.4465,-4.4452,-4.4439,-4.4424,-4.4566,-4.4566,-4.4665,-4.4666,-4.4667]}]]